| time (UTC) | temp F | wind direction | speed MPH | gust MPH | rain 1hr in | rain 24hr in | rain mn in | humidity % | barometer mb |
| 20260507221235 | 69 | 325 | 0.0 | 0.0 | 0.00 | 0.00 | 0.00 | ||
| 20260507220723 | 70 | 319 | 0.0 | 3.0 | 0.00 | 0.00 | 0.00 | ||
| 20260507220209 | 71 | 329 | 0.0 | 7.0 | 0.00 | 0.00 | 0.00 | ||
| 20260507215143 | 69 | 332 | 0.0 | 6.0 | 0.00 | 0.00 | 0.00 | ||
| 20260507214630 | 68 | 157 | 0.0 | 0.0 | 0.00 | 0.00 | 0.00 | ||
| 20260507214117 | 68 | 357 | 0.0 | 1.0 | 0.00 | 0.00 | 0.00 | ||
| 20260507213604 | 68 | 354 | 0.0 | 0.0 | 0.00 | 0.00 | 0.00 | ||
| 20260507213052 | 69 | 335 | 0.0 | 0.0 | 0.00 | 0.00 | 0.00 | ||
| 20260507212538 | 70 | 347 | 0.0 | 0.0 | 0.00 | 0.00 | 0.00 | ||
| 20260507212026 | 70 | 298 | 0.0 | 0.0 | 0.00 | 0.00 | 0.00 | ||
| 20260507211000 | 71 | 327 | 0.0 | 0.0 | 0.00 | 0.00 | 0.00 | ||
| 20260507210447 | 70 | 342 | 0.0 | 0.0 | 0.00 | 0.00 | 0.00 | ||
| 20260507205934 | 69 | 327 | 0.0 | 0.0 | 0.00 | 0.00 | 0.00 | ||
| 20260507204356 | 67 | 315 | 0.0 | 5.0 | 0.00 | 0.00 | 0.00 | ||
| 20260507203843 | 67 | 315 | 0.0 | 5.0 | 0.00 | 0.00 | 0.00 | ||
| 20260507203330 | 67 | 319 | 1.0 | 7.0 | 0.00 | 0.00 | 0.00 | ||
| 20260507202817 | 67 | 325 | 0.0 | 5.0 | 0.00 | 0.00 | 0.00 | ||
| 20260507202306 | 67 | 326 | 1.0 | 3.0 | 0.00 | 0.00 | 0.00 | ||
| 20260507201752 | 67 | 326 | 0.0 | 8.0 | 0.00 | 0.00 | 0.00 | ||
| 20260507201239 | 67 | 326 | 0.0 | 1.0 | 0.00 | 0.00 | 0.00 | ||
| 20260507200213 | 66 | 313 | 0.0 | 3.0 | 0.00 | 0.00 | 0.00 | ||
| 20260507195700 | 66 | 315 | 0.0 | 1.0 | 0.00 | 0.00 | 0.00 | ||
| 20260507195149 | 66 | 322 | 0.0 | 4.0 | 0.00 | 0.00 | 0.00 | ||
| 20260507194634 | 65 | 320 | 0.0 | 3.0 | 0.00 | 0.00 | 0.00 | ||
| 20260507194123 | 65 | 332 | 0.0 | 0.0 | 0.00 | 0.00 | 0.00 | ||
| 20260507193609 | 64 | 325 | 0.0 | 7.0 | 0.00 | 0.00 | 0.00 | ||
| 20260507193056 | 63 | 315 | 0.0 | 7.0 | 0.00 | 0.00 | 0.00 | ||
| 20260507192544 | 63 | 315 | 0.0 | 3.0 | 0.00 | 0.00 | 0.00 | ||
| 20260507192030 | 63 | 321 | 2.0 | 5.0 | 0.00 | 0.00 | 0.00 | ||
| 20260507191517 | 62 | 330 | 0.0 | 2.0 | 0.00 | 0.00 | 0.00 | ||
| 20260507191005 | 62 | 337 | 0.0 | 5.0 | 0.00 | 0.00 | 0.00 | ||
| 20260507190452 | 61 | 332 | 0.0 | 1.0 | 0.00 | 0.00 | 0.00 | ||
| 20260507185939 | 61 | 340 | 0.0 | 1.0 | 0.00 | 0.00 | 0.00 | ||
| 20260507185426 | 60 | 325 | 0.0 | 1.0 | 0.00 | 0.00 | 0.00 | ||
| 20260507184913 | 58 | 328 | 0.0 | 3.0 | 0.00 | 0.00 | 0.00 | ||
| 20260507184400 | 58 | 318 | 0.0 | 5.0 | 0.00 | 0.00 | 0.00 | ||
| 20260507183847 | 58 | 315 | 0.0 | 4.0 | 0.00 | 0.00 | 0.00 | ||
| 20260507183335 | 58 | 319 | 0.0 | 5.0 | 0.00 | 0.00 | 0.00 | ||
| 20260507182822 | 58 | 319 | 1.0 | 4.0 | 0.00 | 0.00 | 0.00 | ||
| 20260507182309 | 58 | 315 | 0.0 | 7.0 | 0.00 | 0.00 | 0.00 | ||
| 20260507181756 | 58 | 324 | 1.0 | 6.0 | 0.00 | 0.00 | 0.00 | ||
| 20260507181243 | 58 | 323 | 0.0 | 3.0 | 0.00 | 0.00 | 0.00 | ||
| 20260507180730 | 58 | 323 | 2.0 | 4.0 | 0.00 | 0.00 | 0.00 | ||
| 20260507180218 | 60 | 330 | 1.0 | 3.0 | 0.00 | 0.00 | 0.00 | ||
| 20260507175705 | 60 | 340 | 0.0 | 0.0 | 0.00 | 0.00 | 0.00 | ||
| 20260507175152 | 59 | 342 | 0.0 | 0.0 | 0.00 | 0.00 | 0.00 | ||
| 20260507174639 | 58 | 345 | 0.0 | 0.0 | 0.00 | 0.00 | 0.00 | ||
| 20260507174126 | 58 | 340 | 0.0 | 0.0 | 0.00 | 0.00 | 0.00 | ||
| 20260507173613 | 56 | 351 | 0.0 | 0.0 | 0.00 | 0.00 | 0.00 | ||
| 20260507173100 | 55 | 322 | 0.0 | 0.0 | 0.00 | 0.00 | 0.00 | ||
| 20260507172548 | 55 | 315 | 0.0 | 0.0 | 0.00 | 0.00 | 0.00 | ||
| 20260507172035 | 55 | 337 | 0.0 | 0.0 | 0.00 | 0.00 | 0.00 | ||
| 20260507171522 | 55 | 337 | 0.0 | 0.0 | 0.00 | 0.00 | 0.00 | ||
| 20260507171009 | 56 | 302 | 0.0 | 0.0 | 0.00 | 0.00 | 0.00 | ||
| 20260507170456 | 55 | 315 | 0.0 | 0.0 | 0.00 | 0.00 | 0.00 | ||
| 20260507165943 | 55 | 161 | 0.0 | 0.0 | 0.00 | 0.00 | 0.00 | ||
| 20260507165431 | 55 | 180 | 0.0 | 0.0 | 0.00 | 0.00 | 0.00 | ||
| 20260507164918 | 55 | 352 | 0.0 | 0.0 | 0.00 | 0.00 | 0.00 | ||
| 20260507164405 | 54 | 101 | 0.0 | 0.0 | 0.00 | 0.00 | 0.00 | ||
| 20260507163852 | 54 | 337 | 0.0 | 0.0 | 0.00 | 0.00 | 0.00 | ||
| 20260507163339 | 54 | 157 | 0.0 | 0.0 | 0.00 | 0.00 | 0.00 | ||
| 20260507162826 | 54 | 3 | 0.0 | 0.0 | 0.00 | 0.00 | 0.00 | ||
| 20260507162313 | 55 | 324 | 0.0 | 0.0 | 0.00 | 0.00 | 0.00 | ||
| 20260507161800 | 55 | 309 | 0.0 | 0.0 | 0.00 | 0.00 | 0.00 | ||
| 20260507161248 | 56 | 319 | 0.0 | 0.0 | 0.00 | 0.00 | 0.00 | ||
| 20260507160735 | 57 | 337 | 0.0 | 0.0 | 0.00 | 0.00 | 0.00 | ||
| 20260507160222 | 57 | 315 | 0.0 | 0.0 | 0.00 | 0.00 | 0.00 | ||
| 20260507155709 | 56 | 311 | 0.0 | 0.0 | 0.00 | 0.00 | 0.00 | ||
| 20260507155157 | 55 | 177 | 0.0 | 0.0 | 0.00 | 0.00 | 0.00 | ||
| 20260507154644 | 54 | 170 | 0.0 | 0.0 | 0.00 | 0.00 | 0.00 | ||
| 20260507154131 | 54 | 153 | 0.0 | 0.0 | 0.00 | 0.00 | 0.00 | ||
| 20260507153618 | 53 | 148 | 0.0 | 0.0 | 0.00 | 0.00 | 0.00 | ||
| 20260507153105 | 53 | 146 | 0.0 | 0.0 | 0.00 | 0.00 | 0.00 | ||
| 20260507152552 | 52 | 129 | 0.0 | 0.0 | 0.00 | 0.00 | 0.00 | ||
| 20260507152039 | 51 | 146 | 0.0 | 0.0 | 0.00 | 0.00 | 0.00 | ||
| 20260507151526 | 49 | 144 | 0.0 | 0.0 | 0.00 | 0.00 | 0.00 | ||
| 20260507151014 | 51 | 152 | 0.0 | 0.0 | 0.00 | 0.00 | 0.00 | ||
| 20260507150501 | 53 | 191 | 0.0 | 0.0 | 0.00 | 0.00 | 0.00 | ||
| 20260507145435 | 52 | 146 | 0.0 | 0.0 | 0.00 | 0.00 | 0.00 | ||
| 20260507144922 | 50 | 148 | 0.0 | 0.0 | 0.00 | 0.00 | 0.00 | ||
| 20260507144410 | 49 | 144 | 0.0 | 0.0 | 0.00 | 0.00 | 0.00 | ||
| 20260507143857 | 48 | 352 | 0.0 | 0.0 | 0.00 | 0.00 | 0.00 | ||
| 20260507143344 | 46 | 146 | 0.0 | 0.0 | 0.00 | 0.00 | 0.00 | ||
| 20260507142831 | 45 | 137 | 0.0 | 0.0 | 0.00 | 0.00 | 0.00 | ||
| 20260507142318 | 42 | 147 | 0.0 | 0.0 | 0.00 | 0.00 | 0.00 | ||
| 20260507141805 | 38 | 67 | 0.0 | 0.0 | 0.00 | 0.00 | 0.00 | ||
| 20260507140227 | 37 | 168 | 0.0 | 0.0 | 0.00 | 0.00 | 0.00 | ||
| 20260507135714 | 37 | 355 | 0.0 | 0.0 | 0.00 | 0.00 | 0.00 | ||
| 20260507135201 | 37 | 90 | 0.0 | 0.0 | 0.00 | 0.00 | 0.00 | ||
| 20260507134648 | 37 | 337 | 0.0 | 0.0 | 0.00 | 0.00 | 0.00 | ||
| 20260507134135 | 37 | 180 | 0.0 | 0.0 | 0.00 | 0.00 | 0.00 | ||
| 20260507133622 | 36 | 337 | 0.0 | 0.0 | 0.00 | 0.00 | 0.00 | ||
| 20260507133109 | 33 | 0 | 0.0 | 0.0 | 0.00 | 0.00 | 0.00 | ||
| 20260507132557 | 32 | 202 | 0.0 | 0.0 | 0.00 | 0.00 | 0.00 | ||
| 20260507132044 | 30 | 337 | 0.0 | 0.0 | 0.00 | 0.00 | 0.00 | ||
| 20260507131531 | 29 | 258 | 0.0 | 0.0 | 0.00 | 0.00 | 0.00 | ||
| 20260507131018 | 29 | 337 | 0.0 | 0.0 | 0.00 | 0.00 | 0.00 | ||
| 20260507130505 | 29 | 337 | 0.0 | 0.0 | 0.00 | 0.00 | 0.00 | ||
| 20260507125953 | 29 | 126 | 0.0 | 0.0 | 0.00 | 0.00 | 0.00 | ||
| 20260507125440 | 29 | 240 | 0.0 | 0.0 | 0.00 | 0.00 | 0.00 | ||
| 20260507124927 | 29 | 180 | 0.0 | 0.0 | 0.00 | 0.00 | 0.00 | ||
| 20260507124414 | 28 | 247 | 0.0 | 0.0 | 0.00 | 0.00 | 0.00 | ||
| 20260507123901 | 28 | 285 | 0.0 | 0.0 | 0.00 | 0.00 | 0.00 | ||
| 20260507122835 | 28 | 135 | 0.0 | 0.0 | 0.00 | 0.00 | 0.00 | ||
| 20260507122322 | 28 | 292 | 0.0 | 0.0 | 0.00 | 0.00 | 0.00 | ||
| 20260507121810 | 27 | 67 | 0.0 | 0.0 | 0.00 | 0.00 | 0.00 | ||
| 20260507121257 | 27 | 337 | 0.0 | 0.0 | 0.00 | 0.00 | 0.00 | ||
| 20260507120744 | 27 | 337 | 0.0 | 0.0 | 0.00 | 0.00 | 0.00 | ||
| 20260507120231 | 27 | 337 | 0.0 | 0.0 | 0.00 | 0.00 | 0.00 | ||
| 20260507115718 | 27 | 45 | 0.0 | 0.0 | 0.00 | 0.00 | 0.00 | ||
| 20260507115206 | 28 | 337 | 0.0 | 0.0 | 0.00 | 0.00 | 0.00 | ||
| 20260507114653 | 28 | 337 | 0.0 | 0.0 | 0.00 | 0.00 | 0.00 | ||
| 20260507114140 | 28 | 104 | 0.0 | 0.0 | 0.00 | 0.00 | 0.00 | ||
| 20260507113627 | 29 | 337 | 0.0 | 0.0 | 0.00 | 0.00 | 0.00 | ||
| 20260507113114 | 29 | 337 | 0.0 | 0.0 | 0.00 | 0.00 | 0.00 | ||
| 20260507112601 | 29 | 337 | 0.0 | 0.0 | 0.00 | 0.00 | 0.00 | ||
| 20260507112048 | 29 | 22 | 0.0 | 0.0 | 0.00 | 0.00 | 0.00 | ||
| 20260507111535 | 29 | 337 | 0.0 | 0.0 | 0.00 | 0.00 | 0.00 | ||
| 20260507111023 | 29 | 337 | 0.0 | 0.0 | 0.00 | 0.00 | 0.00 | ||
| 20260507110510 | 29 | 337 | 0.0 | 0.0 | 0.00 | 0.00 | 0.00 | ||
| 20260507105958 | 29 | 337 | 0.0 | 0.0 | 0.00 | 0.00 | 0.00 | ||
| 20260507105444 | 29 | 337 | 0.0 | 0.0 | 0.00 | 0.00 | 0.00 | ||
| 20260507104419 | 30 | 180 | 0.0 | 0.0 | 0.00 | 0.00 | 0.00 | ||
| 20260507103906 | 30 | 115 | 0.0 | 0.0 | 0.00 | 0.00 | 0.00 | ||
| 20260507103354 | 30 | 247 | 0.0 | 0.0 | 0.00 | 0.00 | 0.00 | ||
| 20260507102840 | 30 | 337 | 0.0 | 0.0 | 0.00 | 0.00 | 0.00 | ||
| 20260507102327 | 30 | 22 | 0.0 | 0.0 | 0.00 | 0.00 | 0.00 | ||
| 20260507101814 | 29 | 225 | 0.0 | 0.0 | 0.00 | 0.00 | 0.00 | ||
| 20260507101301 | 29 | 337 | 0.0 | 0.0 | 0.00 | 0.00 | 0.00 | ||
| 20260507100748 | 30 | 270 | 0.0 | 0.0 | 0.00 | 0.00 | 0.00 | ||
| 20260507100236 | 30 | 337 | 0.0 | 0.0 | 0.00 | 0.00 | 0.00 | ||
| 20260507095723 | 30 | 135 | 0.0 | 0.0 | 0.00 | 0.00 | 0.00 | ||
| 20260507094657 | 30 | 337 | 0.0 | 0.0 | 0.00 | 0.00 | 0.00 | ||
| 20260507094144 | 30 | 337 | 0.0 | 0.0 | 0.00 | 0.00 | 0.00 | ||
| 20260507093632 | 30 | 337 | 0.0 | 0.0 | 0.00 | 0.00 | 0.00 | ||
| 20260507093119 | 30 | 307 | 0.0 | 0.0 | 0.00 | 0.00 | 0.00 | ||
| 20260507092606 | 30 | 90 | 0.0 | 0.0 | 0.00 | 0.00 | 0.00 | ||
| 20260507092053 | 30 | 292 | 0.0 | 0.0 | 0.00 | 0.00 | 0.00 | ||
| 20260507091540 | 31 | 337 | 0.0 | 0.0 | 0.00 | 0.00 | 0.00 | ||
| 20260507091027 | 31 | 337 | 0.0 | 0.0 | 0.00 | 0.00 | 0.00 | ||
| 20260507090514 | 31 | 337 | 0.0 | 0.0 | 0.00 | 0.00 | 0.00 | ||
| 20260507090001 | 31 | 337 | 0.0 | 0.0 | 0.00 | 0.00 | 0.00 | ||
| 20260507085449 | 31 | 337 | 0.0 | 0.0 | 0.00 | 0.00 | 0.00 | ||
| 20260507084936 | 31 | 337 | 0.0 | 0.0 | 0.00 | 0.00 | 0.00 | ||
| 20260507084423 | 31 | 337 | 0.0 | 0.0 | 0.00 | 0.00 | 0.00 | ||
| 20260507083910 | 31 | 337 | 0.0 | 0.0 | 0.00 | 0.00 | 0.00 | ||
| 20260507083357 | 31 | 337 | 0.0 | 0.0 | 0.00 | 0.00 | 0.00 | ||
| 20260507082845 | 31 | 112 | 0.0 | 0.0 | 0.00 | 0.00 | 0.00 | ||
| 20260507082332 | 30 | 337 | 0.0 | 0.0 | 0.00 | 0.00 | 0.00 | ||
| 20260507081819 | 30 | 337 | 0.0 | 0.0 | 0.00 | 0.00 | 0.00 | ||
| 20260507081306 | 30 | 67 | 0.0 | 0.0 | 0.00 | 0.00 | 0.00 | ||
| 20260507080753 | 30 | 337 | 0.0 | 0.0 | 0.00 | 0.00 | 0.00 | ||
| 20260507080240 | 30 | 337 | 0.0 | 0.0 | 0.00 | 0.00 | 0.00 | ||
| 20260507075215 | 29 | 337 | 0.0 | 0.0 | 0.00 | 0.00 | 0.00 | ||
| 20260507074702 | 29 | 337 | 0.0 | 0.0 | 0.00 | 0.00 | 0.00 | ||
| 20260507074149 | 29 | 337 | 0.0 | 0.0 | 0.00 | 0.00 | 0.00 | ||
| 20260507073636 | 29 | 337 | 0.0 | 0.0 | 0.00 | 0.00 | 0.00 | ||
| 20260507073124 | 29 | 337 | 0.0 | 0.0 | 0.00 | 0.00 | 0.00 | ||
| 20260507072611 | 29 | 337 | 0.0 | 0.0 | 0.00 | 0.00 | 0.00 | ||
| 20260507072058 | 30 | 337 | 0.0 | 0.0 | 0.00 | 0.00 | 0.00 | ||
| 20260507071544 | 30 | 315 | 0.0 | 0.0 | 0.00 | 0.00 | 0.00 | ||
| 20260507070519 | 31 | 337 | 0.0 | 0.0 | 0.00 | 0.00 | 0.00 | ||
| 20260507070010 | 31 | 60 | 0.0 | 0.0 | 0.00 | 0.00 | 0.00 | ||
| 20260507065453 | 31 | 337 | 0.0 | 0.0 | 0.00 | 0.00 | 0.00 | ||
| 20260507064940 | 31 | 337 | 0.0 | 0.0 | 0.00 | 0.00 | 0.00 | ||
| 20260507064428 | 31 | 337 | 0.0 | 0.0 | 0.00 | 0.00 | 0.00 | ||
| 20260507063915 | 31 | 337 | 0.0 | 0.0 | 0.00 | 0.00 | 0.00 | ||
| 20260507063402 | 32 | 180 | 0.0 | 0.0 | 0.00 | 0.00 | 0.00 | ||
| 20260507062849 | 32 | 337 | 0.0 | 0.0 | 0.00 | 0.00 | 0.00 | ||
| 20260507062336 | 32 | 337 | 0.0 | 0.0 | 0.00 | 0.00 | 0.00 | ||
| 20260507061824 | 32 | 225 | 0.0 | 0.0 | 0.00 | 0.00 | 0.00 | ||
| 20260507061310 | 32 | 337 | 0.0 | 0.0 | 0.00 | 0.00 | 0.00 | ||
| 20260507060758 | 32 | 337 | 0.0 | 0.0 | 0.00 | 0.00 | 0.00 | ||
| 20260507055732 | 32 | 337 | 0.0 | 0.0 | 0.00 | 0.00 | 0.00 | ||
| 20260507055219 | 32 | 337 | 0.0 | 0.0 | 0.00 | 0.00 | 0.00 | ||
| 20260507054154 | 32 | 337 | 0.0 | 0.0 | 0.00 | 0.00 | 0.00 | ||
| 20260507053641 | 32 | 337 | 0.0 | 0.0 | 0.00 | 0.00 | 0.00 | ||
| 20260507053128 | 32 | 343 | 0.0 | 0.0 | 0.00 | 0.00 | 0.00 | ||
| 20260507052615 | 33 | 15 | 0.0 | 0.0 | 0.00 | 0.00 | 0.00 | ||
| 20260507052102 | 33 | 67 | 0.0 | 0.0 | 0.00 | 0.00 | 0.00 | ||
| 20260507051549 | 34 | 114 | 0.0 | 0.0 | 0.00 | 0.00 | 0.00 | ||
| 20260507051036 | 34 | 337 | 0.0 | 0.0 | 0.00 | 0.00 | 0.00 | ||
| 20260507050523 | 34 | 337 | 0.0 | 0.0 | 0.00 | 0.00 | 0.00 | ||
| 20260507050011 | 34 | 337 | 0.0 | 0.0 | 0.00 | 0.00 | 0.00 | ||
| 20260507045458 | 34 | 337 | 0.0 | 0.0 | 0.00 | 0.00 | 0.00 | ||
| 20260507044945 | 35 | 337 | 0.0 | 0.0 | 0.00 | 0.00 | 0.00 | ||
| 20260507044432 | 35 | 337 | 0.0 | 0.0 | 0.00 | 0.00 | 0.00 | ||
| 20260507043919 | 35 | 337 | 0.0 | 0.0 | 0.00 | 0.00 | 0.00 | ||
| 20260507043406 | 35 | 337 | 0.0 | 0.0 | 0.00 | 0.00 | 0.00 | ||
| 20260507042854 | 36 | 315 | 0.0 | 0.0 | 0.00 | 0.00 | 0.00 | ||
| 20260507042341 | 36 | 337 | 0.0 | 0.0 | 0.00 | 0.00 | 0.00 | ||
| 20260507041828 | 35 | 315 | 0.0 | 0.0 | 0.00 | 0.00 | 0.00 | ||
| 20260507041315 | 36 | 337 | 0.0 | 0.0 | 0.00 | 0.00 | 0.00 | ||
| 20260507040802 | 36 | 91 | 0.0 | 0.0 | 0.00 | 0.00 | 0.00 | ||
| 20260507035736 | 37 | 337 | 0.0 | 0.0 | 0.00 | 0.00 | 0.00 | ||
| 20260507035224 | 37 | 337 | 0.0 | 0.0 | 0.00 | 0.00 | 0.00 | ||
| 20260507034711 | 37 | 337 | 0.0 | 0.0 | 0.00 | 0.00 | 0.00 | ||
| 20260507034158 | 37 | 337 | 0.0 | 0.0 | 0.00 | 0.00 | 0.00 | ||
| 20260507033132 | 37 | 337 | 0.0 | 0.0 | 0.00 | 0.00 | 0.00 | ||
| 20260507032620 | 37 | 337 | 0.0 | 0.0 | 0.00 | 0.00 | 0.00 | ||
| 20260507032107 | 37 | 22 | 0.0 | 0.0 | 0.00 | 0.00 | 0.00 | ||
| 20260507031554 | 38 | 337 | 0.0 | 0.0 | 0.00 | 0.00 | 0.00 | ||
| 20260507031041 | 38 | 337 | 0.0 | 0.0 | 0.00 | 0.00 | 0.00 | ||
| 20260507030528 | 38 | 337 | 0.0 | 0.0 | 0.00 | 0.00 | 0.00 | ||
| 20260507030015 | 39 | 337 | 0.0 | 0.0 | 0.00 | 0.00 | 0.00 | ||
| 20260507025502 | 39 | 337 | 0.0 | 0.0 | 0.00 | 0.00 | 0.00 | ||
| 20260507024950 | 39 | 135 | 0.0 | 0.0 | 0.00 | 0.00 | 0.00 | ||
| 20260507024437 | 39 | 281 | 0.0 | 0.0 | 0.00 | 0.00 | 0.00 | ||
| 20260507023924 | 40 | 202 | 0.0 | 0.0 | 0.00 | 0.00 | 0.00 | ||
| 20260507023411 | 40 | 144 | 0.0 | 0.0 | 0.00 | 0.00 | 0.00 | ||
| 20260507022858 | 40 | 115 | 0.0 | 0.0 | 0.00 | 0.00 | 0.00 | ||
| 20260507022345 | 40 | 67 | 0.0 | 0.0 | 0.00 | 0.00 | 0.00 | ||
| 20260507021833 | 40 | 157 | 0.0 | 0.0 | 0.00 | 0.00 | 0.00 | ||
| 20260507021320 | 41 | 135 | 0.0 | 0.0 | 0.00 | 0.00 | 0.00 | ||
| 20260507020807 | 42 | 135 | 0.0 | 0.0 | 0.00 | 0.00 | 0.00 | ||
| 20260507015228 | 45 | 307 | 0.0 | 0.0 | 0.00 | 0.00 | 0.00 | ||
| 20260507014715 | 46 | 10 | 0.0 | 0.0 | 0.00 | 0.00 | 0.00 | ||
| 20260507014203 | 47 | 317 | 0.0 | 0.0 | 0.00 | 0.00 | 0.00 | ||
| 20260507013650 | 49 | 333 | 0.0 | 0.0 | 0.00 | 0.00 | 0.00 | ||
| 20260507013137 | 50 | 317 | 0.0 | 0.0 | 0.00 | 0.00 | 0.00 | ||
| 20260507012624 | 51 | 315 | 0.0 | 1.0 | 0.00 | 0.00 | 0.00 | ||
| 20260507012111 | 53 | 315 | 0.0 | 3.0 | 0.00 | 0.00 | 0.00 | ||
| 20260507011558 | 54 | 331 | 0.0 | 3.0 | 0.00 | 0.00 | 0.00 | ||
| 20260507011046 | 55 | 322 | 0.0 | 5.0 | 0.00 | 0.00 | 0.00 | ||
| 20260507010533 | 56 | 312 | 0.0 | 1.0 | 0.00 | 0.00 | 0.00 | ||
| 20260507010020 | 56 | 316 | 1.0 | 6.0 | 0.00 | 0.00 | 0.00 | ||
| 20260507005507 | 57 | 317 | 2.0 | 5.0 | 0.00 | 0.00 | 0.00 | ||
| 20260507004954 | 58 | 319 | 2.0 | 11.0 | 0.00 | 0.00 | 0.00 | ||
| 20260507004441 | 58 | 322 | 0.0 | 1.0 | 0.00 | 0.00 | 0.00 | ||
| 20260507003928 | 58 | 324 | 0.0 | 1.0 | 0.00 | 0.00 | 0.00 | ||
| 20260507003415 | 58 | 322 | 2.0 | 8.0 | 0.00 | 0.00 | 0.00 | ||
| 20260507002903 | 58 | 328 | 0.0 | 1.0 | 0.00 | 0.00 | 0.00 | ||
| 20260507001837 | 58 | 335 | 0.0 | 1.0 | 0.00 | 0.00 | 0.00 | ||
| 20260507000811 | 58 | 315 | 0.0 | 7.0 | 0.00 | 0.00 | 0.00 | ||
| 20260507000259 | 59 | 333 | 0.0 | 5.0 | 0.00 | 0.00 | 0.00 | ||
| 20260506235745 | 59 | 318 | 0.0 | 5.0 | 0.00 | 0.00 | 0.00 | ||
| 20260506235233 | 59 | 320 | 2.0 | 7.0 | 0.00 | 0.00 | 0.00 | ||
| 20260506234720 | 59 | 327 | 0.0 | 3.0 | 0.00 | 0.00 | 0.00 | ||
| 20260506234207 | 59 | 319 | 0.0 | 6.0 | 0.00 | 0.00 | 0.00 | ||
| 20260506233654 | 60 | 324 | 0.0 | 11.0 | 0.00 | 0.00 | 0.00 | ||
| 20260506233141 | 59 | 315 | 0.0 | 9.0 | 0.00 | 0.00 | 0.00 | ||
| 20260506232628 | 60 | 315 | 0.0 | 9.0 | 0.00 | 0.00 | 0.00 | ||
| 20260506232116 | 60 | 317 | 0.0 | 9.0 | 0.00 | 0.00 | 0.00 | ||
| 20260506231603 | 58 | 327 | 0.0 | 4.0 | 0.00 | 0.00 | 0.00 | ||
| 20260506231050 | 57 | 337 | 0.0 | 6.0 | 0.00 | 0.00 | 0.00 | ||
| 20260506230537 | 54 | 323 | 0.0 | 7.0 | 0.00 | 0.00 | 0.00 | ||
| 20260506230024 | 53 | 293 | 0.0 | 4.0 | 0.00 | 0.00 | 0.00 | ||
| 20260506225511 | 55 | 318 | 0.0 | 6.0 | 0.00 | 0.00 | 0.00 | ||
| 20260506224958 | 55 | 337 | 0.0 | 3.0 | 0.00 | 0.00 | 0.00 | ||
| 20260506224446 | 55 | 315 | 0.0 | 6.0 | 0.00 | 0.00 | 0.00 | ||
| 20260506223933 | 54 | 323 | 0.0 | 1.0 | 0.00 | 0.00 | 0.00 | ||
| 20260506223420 | 56 | 315 | 0.0 | 2.0 | 0.00 | 0.00 | 0.00 | ||
| 20260506222907 | 57 | 311 | 0.0 | 3.0 | 0.00 | 0.00 | 0.00 | ||
| 20260506222354 | 58 | 292 | 0.0 | 2.0 | 0.00 | 0.00 | 0.00 | ||
| 20260506221841 | 58 | 316 | 0.0 | 9.0 | 0.00 | 0.00 | 0.00 |